Theta_e
335 336 333 320 305 300 296 297 303 302 305 309 310 308 310 325 321 313 337 343 348 348 353 355 358 358 358 358 356 355 354 353 352 350 348 347 347 347 347 347 347 346 345 343 342 341 340 340 340
328 330 325 313 299 293 295 302 300 304 307 310 310 309 311 321 332 332 332 345 346 349 350 352 357 358 359 357 356 355 354 353 352 351 349 346 345 345 345 345 345 345 344 344 344 343 342 343 345
327 328 313 305 300 294 296 303 304 306 310 308 306 310 316 324 333 334 339 346 345 346 348 352 356 358 357 356 355 355 354 354 353 351 350 349 345 343 343 344 343 343 344 343 344 344 344 344 346
322 322 316 301 297 301 302 304 306 307 309 308 309 312 331 337 334 338 341 345 343 344 350 353 355 356 356 355 355 356 355 355 354 352 351 350 345 341 342 343 344 345 344 345 346 347 346 346 346
321 316 302 299 299 304 306 308 309 306 307 308 309 314 326 335 341 340 341 345 341 344 348 352 356 356 356 355 355 354 355 355 354 353 352 349 345 341 342 343 346 345 345 345 346 346 346 345 345
310 311 298 295 300 304 307 308 308 307 308 309 306 314 326 336 337 339 340 343 344 346 347 350 352 354 355 355 354 354 354 354 353 352 351 350 345 342 341 343 344 344 343 343 344 345 344 344 344
307 304 298 298 299 302 306 309 304 306 307 307 313 307 327 334 340 339 339 341 348 347 346 348 350 351 352 353 353 353 353 351 350 350 350 350 346 345 343 343 345 343 343 342 342 344 343 342 340
309 306 299 300 299 300 308 307 308 307 306 314 317 315 322 335 343 341 342 344 347 347 346 346 347 349 350 349 350 349 348 347 348 346 343 342 343 344 345 342 343 344 344 343 343 341 342 341 338
313 300 296 299 300 302 309 306 310 311 309 313 318 323 334 339 343 340 338 339 344 344 344 346 346 346 348 347 346 346 345 344 342 340 337 336 340 341 340 339 340 342 343 342 341 339 338 338 336
304 297 298 306 306 304 307 307 308 308 308 310 319 326 336 337 340 337 334 333 337 340 342 344 344 345 347 346 344 344 342 339 338 336 333 333 331 341 342 337 339 342 341 340 340 339 338 334 328
302 297 303 306 308 309 308 308 310 306 305 310 315 323 331 335 335 335 335 335 337 339 340 344 345 346 345 343 342 343 341 339 337 335 333 331 330 336 341 338 339 337 336 336 336 333 329 325 324
298 301 303 307 308 308 306 310 308 307 307 313 319 326 332 333 333 334 335 334 337 339 341 342 346 344 343 344 343 341 339 338 334 331 330 328 329 328 337 337 337 336 336 337 334 332 331 330 327
298 300 303 305 306 307 309 307 307 308 312 314 320 324 325 331 331 334 337 338 337 338 340 343 344 343 343 343 342 340 338 336 333 328 325 328 328 327 326 336 337 335 335 334 333 332 330 329 328
300 300 301 303 304 306 305 306 308 309 313 310 315 315 319 322 329 329 332 333 336 339 338 342 342 343 343 340 341 338 339 335 334 331 328 325 327 328 327 329 333 333 335 333 331 328 327 326 327
299 295 299 300 303 303 306 301 303 310 310 310 311 311 314 319 322 328 330 331 336 337 340 340 340 343 341 340 340 339 338 338 337 333 332 329 327 326 329 329 329 329 329 328 328 326 325 323 323
293 294 290 297 302 304 302 294 304 309 308 306 309 308 311 314 317 320 324 332 335 337 338 340 343 341 341 340 340 341 339 337 337 335 334 333 332 331 329 328 327 328 327 326 326 325 324 323 322
290 286 288 292 300 300 300 294 302 306 305 306 306 307 310 312 313 316 324 329 335 338 338 338 340 340 340 340 342 340 340 339 338 337 335 336 334 333 331 330 328 326 326 326 327 325 324 323 323
283 284 288 289 294 298 295 295 300 303 303 302 305 305 307 311 312 314 322 329 333 335 338 338 339 339 340 340 338 340 340 340 339 337 337 337 336 334 333 332 331 327 326 325 326 325 325 323 323
290 288 288 291 296 294 294 295 298 301 303 302 303 305 305 308 311 314 318 327 331 332 334 337 337 338 340 339 335 334 333 336 338 338 338 337 337 336 334 333 332 331 328 327 327 326 325 323 324
288 289 288 293 296 295 295 295 299 299 301 301 303 303 304 305 309 311 315 322 328 329 331 335 337 338 339 338 339 336 334 334 334 337 337 339 339 338 336 334 333 332 331 329 329 327 325 325 325
287 286 289 289 294 297 294 292 296 299 301 302 304 304 305 305 306 309 312 316 325 327 330 332 334 336 338 338 336 334 333 333 333 334 335 336 337 337 337 335 333 332 332 330 330 329 326 322 324
285 292 290 292 290 285 294 282 292 295 298 300 300 301 301 303 306 308 311 313 322 327 329 330 330 333 336 336 334 330 329 327 329 331 333 335 335 334 334 334 334 333 332 330 329 330 327 325 323
288 292 292 292 290 288 289 284 288 296 294 297 300 301 302 303 305 307 310 312 312 314 317 326 330 330 332 332 331 330 328 328 328 330 331 332 334 334 333 333 332 332 332 332 331 329 329 328 325
293 292 292 291 289 280 286 285 284 289 293 295 300 301 303 303 305 309 312 313 311 311 311 312 322 327 330 330 328 325 326 326 327 327 327 330 332 333 333 333 332 332 331 331 330 330 329 327 326
289 287 281 279 279 280 288 285 285 292 297 298 299 300 302 302 305 308 310 309 309 309 310 312 312 313 321 325 328 327 324 324 323 325 325 323 322 324 329 331 330 329 331 331 331 330 329 329 328
286 286 281 273 274 278 287 283 285 293 296 298 299 299 302 302 305 307 309 308 308 310 309 308 309 308 311 313 315 317 321 320 318 318 319 320 321 321 321 321 321 323 326 328 328 329 329 329 328
286 284 289 283 283 279 282 283 289 294 294 295 295 298 297 299 303 306 307 308 308 307 307 306 307 308 309 310 308 309 309 309 309 310 312 312 313 314 314 316 317 318 319 320 323 324 326 326 325
288 289 284 284 276 277 280 280 284 289 291 294 294 295 296 298 299 301 305 306 309 307 307 307 307 307 309 310 308 309 309 309 309 309 309 309 310 311 312 313 314 314 314 314 315 317 315 315 312
285 284 287 288 284 276 275 279 288 290 293 293 294 295 297 298 300 300 301 304 306 306 306 305 306 307 307 308 308 307 306 305 304 304 303 303 303 304 306 307 308 309 309 310 311 311 311 310 308
291 287 288 283 282 282 282 279 292 293 294 296 297 298 297 299 300 300 300 303 304 304 305 304 304 304 304 304 305 304 304 304 302 301 300 301 301 301 301 302 304 304 304 306 308 307 308 307 306
Wind_Speed
12 11 8 3 3 5 10 10 8 13 8 4 8 7 2 11 1 9 14 14 25 20 17 16 19 18 17 17 17 16 16 15 15 15 16 16 16 16 17 17 18 19 19 18 18 18 18 17 16
9 16 4 3 5 9 10 14 18 6 6 11 7 4 1 11 7 2 6 23 22 18 16 15 19 18 18 17 17 16 16 15 15 15 15 17 16 16 16 17 18 18 18 18 17 17 16 16 15
12 13 4 5 8 13 11 15 18 5 9 6 1 2 4 7 11 4 9 21 22 18 16 15 19 18 18 17 17 15 15 16 15 16 15 16 16 16 16 17 18 18 16 16 15 15 15 14 14
6 4 4 9 14 20 18 12 8 7 4 4 7 5 7 10 3 7 9 21 19 16 17 17 17 18 17 16 15 14 15 15 15 16 15 16 16 16 17 17 16 15 15 14 15 16 15 13 12
5 4 5 11 21 19 19 13 11 10 7 4 7 7 6 3 8 7 10 18 19 14 17 16 18 17 17 15 15 14 15 15 15 15 15 17 17 16 16 16 14 15 14 14 16 15 15 13 11
5 4 8 14 20 19 19 8 10 10 9 7 6 6 4 2 3 9 8 14 18 17 16 14 16 17 16 15 14 14 15 16 15 14 14 18 17 16 16 15 13 14 14 14 13 14 14 13 11
4 8 9 19 18 17 20 10 7 8 6 2 7 5 5 6 6 6 7 10 19 17 15 12 11 12 14 15 14 14 14 14 16 13 13 13 16 14 15 13 12 13 13 13 12 12 12 11 10
3 4 17 16 18 19 14 6 8 8 4 4 4 4 8 7 5 4 7 12 15 15 16 13 11 10 10 9 13 11 11 15 14 12 11 11 11 13 12 11 10 11 11 11 10 10 9 9 7
9 4 11 18 18 17 14 13 8 7 9 6 4 12 13 13 8 7 6 3 11 12 15 14 13 11 11 10 8 10 11 13 13 10 9 8 5 7 10 10 11 10 9 9 9 8 7 7 6
10 6 11 12 17 12 5 15 12 6 12 7 7 6 16 12 10 11 7 6 11 8 10 10 13 11 10 10 8 8 8 6 6 6 6 5 7 7 8 9 11 11 10 8 7 6 5 6 3
10 13 13 15 15 13 3 11 14 11 11 11 11 8 11 12 8 12 9 6 9 12 5 10 10 11 9 10 6 5 5 6 5 8 7 5 6 5 5 5 4 4 7 4 4 4 4 5 4
11 21 15 17 9 6 4 9 19 4 8 14 16 11 8 12 9 9 9 9 11 9 9 5 8 10 10 7 7 5 5 5 4 6 7 5 4 5 6 4 5 5 4 5 5 4 5 3 0
22 13 19 17 1 3 12 13 14 10 4 6 19 14 10 12 7 7 7 5 9 8 8 7 6 9 8 8 7 5 5 3 5 5 5 5 5 5 5 7 5 5 4 5 5 5 4 5 5
7 14 11 10 5 4 8 9 9 11 8 4 13 10 11 10 11 7 7 6 6 7 8 7 8 7 8 5 7 5 4 4 5 5 3 4 4 4 5 4 6 5 6 5 4 3 1 1 1
7 8 5 5 11 2 6 10 8 16 17 15 9 9 8 11 10 13 12 10 11 7 6 6 6 7 9 7 6 4 4 3 5 5 6 4 2 2 4 3 3 2 2 2 2 1 2 1 1
3 5 6 10 15 13 7 6 14 20 1 4 6 8 8 9 10 8 8 11 9 10 10 8 5 6 6 8 6 3 4 3 4 4 5 6 5 4 3 1 3 4 3 3 3 2 3 3 3
2 3 8 8 9 10 13 7 14 17 15 11 8 8 10 8 8 8 6 9 13 13 12 10 9 7 6 6 6 5 5 4 4 4 5 8 6 6 5 3 3 4 3 3 3 3 3 2 2
5 4 7 13 11 8 8 9 8 10 8 9 9 9 8 12 11 12 10 6 8 11 14 13 10 7 7 5 4 3 3 4 4 4 4 8 6 7 6 4 5 5 4 3 3 4 3 2 2
1 14 13 13 11 11 10 8 14 9 12 10 9 9 8 9 7 11 11 9 7 7 9 12 12 9 5 3 4 3 4 2 2 3 5 6 5 7 7 4 5 5 5 5 5 3 3 2 2
6 3 17 7 14 15 15 12 14 9 5 7 7 8 9 7 9 7 11 9 8 7 7 10 11 9 8 6 6 4 4 3 3 2 2 2 4 5 6 6 4 5 4 5 5 5 3 3 4
6 4 7 9 5 4 8 12 13 11 8 7 8 9 8 10 7 7 12 9 9 8 7 8 11 11 10 8 3 3 4 3 0 3 2 5 4 3 3 2 3 3 3 4 4 4 7 4 4
2 3 12 16 13 4 15 5 5 11 12 11 9 8 6 7 7 8 11 9 7 7 6 6 6 9 9 8 6 6 3 4 3 4 3 4 5 5 6 6 5 4 4 4 4 3 3 4 4
2 9 9 3 6 6 12 2 6 20 14 14 11 9 8 7 6 8 10 12 9 7 3 3 7 7 8 7 7 4 3 2 3 3 4 3 4 4 4 5 6 5 3 2 4 4 5 4 4
4 3 4 3 2 4 9 7 6 10 22 11 12 12 10 9 9 7 9 10 8 8 5 3 3 4 7 8 8 9 7 5 2 1 2 2 2 3 6 5 5 4 5 4 3 6 7 5 3
6 2 4 4 2 2 11 6 7 2 12 14 15 13 13 10 9 8 13 9 9 9 8 5 4 4 5 5 5 7 8 5 6 4 4 1 2 1 3 1 3 3 3 3 3 3 5 5 6
1 3 1 4 4 5 7 3 6 4 7 4 5 6 11 9 9 9 10 11 10 9 8 8 8 6 4 4 4 4 5 6 5 4 3 1 4 3 5 5 2 2 1 2 2 2 4 4 4
5 4 5 4 4 6 5 1 6 8 7 3 4 5 4 3 8 10 9 11 11 10 9 7 6 8 7 6 6 7 5 5 3 4 4 3 4 4 6 4 3 3 4 5 1 3 5 5 3
4 4 3 1 3 3 3 6 4 6 6 6 4 5 4 2 3 2 5 9 10 9 9 9 7 6 9 10 7 6 6 6 4 6 6 5 5 4 4 4 3 3 4 3 3 1 2 2 1
4 1 5 4 1 2 4 1 4 7 7 7 5 4 5 6 6 4 2 5 9 9 8 8 7 8 5 8 11 11 7 6 6 6 6 4 6 4 5 4 3 4 3 2 2 1 1 3 4
5 6 3 2 5 4 3 1 7 7 7 6 5 3 4 5 5 3 6 8 8 8 8 8 7 7 6 5 7 11 8 6 6 6 6 5 5 5 4 3 4 4 4 3 2 1 2 3 4
Wind_Direction
277 259 240 256 229 228 231 239 238 245 173 52 39 41 72 43 117 116 140 122 119 131 135 134 132 130 127 124 120 116 113 111 107 102 99 98 94 93 93 95 97 95 95 94 93 92 92 91 90
266 258 241 248 232 214 231 217 239 231 58 91 35 10 95 73 72 114 69 124 122 130 143 138 134 133 132 131 123 124 122 117 112 103 101 97 95 95 96 99 97 97 95 94 93 92 93 92 90
261 263 204 208 228 233 219 220 225 101 59 47 256 274 21 82 114 178 125 126 128 134 143 137 138 140 136 133 133 134 127 122 116 112 107 104 98 98 100 101 100 98 97 97 97 97 94 93 92
236 244 260 227 209 226 248 229 143 104 103 194 246 112 77 356 53 120 149 127 128 145 126 139 137 138 133 129 127 128 125 125 119 120 117 107 104 103 106 105 102 98 96 99 105 98 94 94 89
212 248 221 227 230 217 237 263 116 130 145 183 247 120 81 28 334 123 138 133 133 134 131 139 140 134 133 136 136 133 128 124 122 123 124 116 110 108 111 108 100 99 98 93 95 97 93 92 85
222 231 201 217 219 228 229 182 130 145 191 168 215 139 79 124 285 141 175 138 133 121 133 139 138 141 140 141 139 139 133 129 120 113 113 127 117 114 115 113 108 108 102 97 98 102 101 97 90
235 215 209 213 221 213 236 139 153 170 135 119 352 199 113 116 12 125 167 133 129 133 135 138 144 140 139 145 140 146 137 128 119 116 109 116 122 121 119 118 120 118 109 104 100 102 103 98 90
210 216 220 218 218 212 217 153 179 170 140 107 318 147 150 147 112 77 58 76 124 135 135 145 145 148 142 143 138 128 132 126 116 112 111 112 125 126 119 116 119 119 116 109 102 100 102 103 100
188 237 206 221 216 223 209 170 212 114 131 90 37 65 114 127 129 124 111 144 121 141 142 147 150 154 147 135 129 118 117 114 114 113 126 137 132 143 144 133 131 123 121 117 116 115 119 122 127
208 241 221 216 237 228 255 182 179 118 121 109 96 94 119 128 135 142 151 172 135 125 144 145 155 153 150 138 145 134 135 142 152 145 169 189 158 154 152 140 141 135 124 120 126 142 175 183 177
216 234 222 238 257 24 11 242 159 165 149 154 141 137 134 137 144 147 152 193 151 139 124 143 145 149 137 141 152 148 164 174 166 148 192 209 127 124 130 140 143 145 143 153 160 181 217 224 197
232 231 248 239 41 55 313 256 316 208 174 156 140 137 125 139 164 157 163 178 133 142 134 153 147 136 141 152 147 161 174 192 145 154 193 129 121 149 147 155 166 157 173 178 196 201 209 156 290
240 249 219 246 61 320 259 216 246 282 307 83 132 137 151 148 169 156 147 185 140 135 154 149 147 137 159 151 141 170 191 164 139 138 158 143 148 172 179 161 169 177 177 184 210 226 160 172 195
340 285 257 242 181 192 271 215 221 244 280 199 133 145 155 146 169 150 145 178 152 143 155 162 152 162 150 159 144 184 168 163 130 133 164 167 160 176 162 165 172 183 175 182 188 155 187 186 207
320 300 189 272 161 240 240 238 223 258 261 163 152 155 153 154 163 175 174 180 171 166 155 149 167 161 146 142 161 191 166 167 135 146 163 165 164 153 131 143 134 147 142 182 146 102 85 18 347
234 234 187 252 169 192 141 241 230 228 134 209 195 186 163 142 168 171 178 174 177 167 164 158 150 171 165 187 178 173 176 166 150 156 151 171 162 154 132 176 160 178 159 156 144 172 183 215 197
227 126 191 210 210 211 151 212 215 212 213 184 232 195 164 166 177 148 170 180 182 170 166 166 176 185 187 169 152 180 201 165 171 191 158 165 170 167 161 185 195 187 162 156 177 201 167 187 220
184 214 225 201 188 234 207 213 255 236 202 198 194 237 194 186 191 159 160 200 185 171 169 172 175 183 168 160 170 184 177 204 194 193 159 154 168 170 170 190 191 176 155 175 187 193 200 158 194
240 225 230 222 176 201 225 206 239 269 193 209 187 211 203 214 211 154 152 166 202 198 159 157 163 169 156 136 151 169 199 227 215 166 161 162 182 163 166 198 204 173 167 196 194 186 190 212 184
245 294 210 294 172 183 208 207 233 231 247 203 195 229 221 217 184 176 144 155 174 200 183 161 160 161 166 175 171 162 151 195 205 206 167 180 164 165 172 181 213 188 176 201 201 177 178 196 182
215 253 186 210 158 254 210 217 238 229 192 203 225 227 215 196 197 175 150 159 170 183 192 162 168 169 160 169 179 104 89 43 338 239 167 221 201 177 175 188 222 222 211 196 202 193 186 190 236
150 256 250 236 156 187 227 194 225 248 192 184 208 242 241 204 202 208 150 147 157 163 167 187 160 158 158 148 147 143 165 163 223 233 246 229 212 221 195 190 198 194 216 206 242 244 237 173 219
96 328 295 192 211 206 194 83 226 224 211 206 211 207 226 238 242 173 152 146 142 141 184 180 133 129 125 131 121 128 149 123 125 141 178 219 200 197 225 215 194 204 202 222 200 259 231 214 178
15 279 82 160 230 198 216 191 229 208 210 204 205 204 207 204 226 207 148 136 136 126 130 81 165 124 136 139 161 167 167 107 334 58 300 251 162 198 201 205 225 213 185 187 218 227 234 236 220
54 351 126 144 186 244 191 188 265 189 176 197 200 192 198 202 189 162 141 143 131 143 151 156 197 114 126 144 158 177 141 156 181 156 234 214 295 196 152 87 338 269 200 178 201 265 255 226 219
105 37 278 152 143 165 134 217 240 184 129 66 29 166 181 194 169 171 162 150 155 156 156 158 163 136 152 125 112 67 92 145 177 176 258 215 199 205 92 91 66 308 299 174 94 255 255 253 236
137 222 327 316 252 81 188 21 338 103 91 70 148 71 25 67 169 172 165 168 153 144 154 165 157 154 155 163 121 95 100 108 105 105 102 63 66 31 45 35 9 353 21 7 277 251 246 226 236
76 343 328 224 118 175 159 176 232 149 170 161 188 191 208 204 121 78 162 149 147 138 142 149 156 169 157 140 122 112 104 95 123 104 89 80 69 49 43 37 11 30 43 22 341 321 356 129 101
126 238 242 263 216 95 141 143 46 92 77 109 85 92 174 196 161 152 87 83 138 127 131 133 139 137 146 139 134 120 116 120 96 92 86 96 84 57 60 47 20 44 38 50 32 36 206 165 138
198 187 260 19 344 68 321 83 91 84 75 67 109 96 62 42 89 97 136 103 102 113 119 121 119 129 142 149 109 117 126 121 109 117 112 86 86 86 65 44 43 41 24 2 112 125 172 153 141